FENGYUN 1C DEB *, 46993

Orbit data source: Space-Track

FENGYUN 1C DEB *, 46993 is space debris in SSO originally from a launch on Mon, 10 May 1999 UTC launched from the Taiyaun Space Center, China (TSC). Fengyun 1C debris stems from the Chinese weather satellite Fengyun-1C, which was intentionally destroyed by a Chinese anti-satellite missile in 2007. This event dramatically increased the amount of space debris, with thousands of trackable fragments posing hazards to satellites and human spaceflight. The Fengyun 1C debris cloud has become a focal point in discussions about space sustainability and the need for international regulations to prevent the creation of new debris.

Loading next visibility...
Identifier
46993, 1999-025EZT
Orbit
SSO
Country
Flag of CNCN / PRC
Related business
Manufacturer
Unknown
Mission
Spacecraft
Bus & Motor
Unknown
Mass
Unknown
Launch date (UTC)
1999-05-10 (27 years ago)
Launch vehicle
Unknown
Launch site
Taiyaun Space Center, China (TSC)
Object type
Payload
Rocket body
Debris
Shape & HBR
Unknown shape, 0.1 m
Radar Cross Section
Small (<0.1 m²)

Expand to show TLE details & history
Last TLE update: 5 days ago

TLE from 5 days ago
0 FENGYUN 1C DEB *
1 46993U 99025EZT 26068.54212129  .00000404  00000-0  39758-3 0  9997
2 46993  98.7251 183.9217 0263587  69.7913 350.1240 13.69262259614452
Epoch: 2026-03-09T13:00Z
TLE epoch observation values (Epoch: 2026-03-09T13:00:39.279Z)
Latitude
58.37641°
Longitude
167.17097°
Altitude
820.489 km
Speed
7.545 km/s
True Right ascension
11h 18m 16s
True Declination
58° 13' 26"
Sunlit
Object was in full shadow at epoch
Visualization orbit readout
Latitude
Unknown
Longitude
Unknown
Altitude
Unknown
Speed
Unknown
Apparent Right ascension
Unknown
Apparent Declination
Unknown
Sunlit
N/A
Visualization observer readout
Local Sidereal Time
06:56:51
Azimuth
Unknown
Elevation
Unknown
Doppler factor
Unknown
Orbital elements
Apogee altitude
1,193.909 km
Perigee altitude
804.982 km
Semi-major axis
7,377.582 km
Eccentricity
0.02636
Inclination
98.7251°
RAAN
183.9217°
Arg. of periapsis
69.7913°
True anomaly
349.58859°
Mean anomaly
350.124°
Eccentric anomaly
349.85807°
Mean motion
3.42509 °/min
Orbital period
105.11 mins
BSTAR
0.00039758
Loading maneuver chart data...
Computing Atmospheric mass density...

Documentation

Showing up to 5 results
|